Location: ????????
(38.4362°N, 22.8767°E)
Time: 15:13:30
(UTC+00:00)

ACS3 Solar Sail - Pass Details

Date: 29 June 2024
Orbit: 993 x 1023 km, 97.4° (Epoch: 19 July)

Event Time Altitude Azimuth Distance (km) Brightness Sun altitude
Exits shadow 20:03:12 27° 174° (S) 1,813 5.7 -19.2°
Maximum altitude 20:06:50 80° 258° (WSW) 1,013 4.9 -19.6°
Drops below altitude 10° 20:13:04 10° 346° (NNW) 2,764 8.2 -20.3°
Sets 20:15:34 0° 348° (NNW) 3,716 9.1 -20.6°
